Theta_e
290 288 285 286 288 288 288 287 286 284 287 285 282 279 281 281 282 283 284 288 285 288 287 285 284 284 288 291 292 293 290 288 288 290 291 290 290 290 291 291 292 292 295 295 293 294 295 296 295 297 300 304 305 307 310 313 314 316 317 316 316 318 320 322 324 323 323 322 321 321 323 324 322 323 326 326 327 329 329 328 329 328 328 325 321 319
291 286 286 286 288 289 288 285 286 286 285 286 283 283 281 283 285 286 287 286 286 288 284 281 284 286 287 289 290 291 287 290 291 290 290 290 291 291 291 291 291 293 291 292 293 293 291 293 294 293 296 300 302 305 308 311 314 315 316 316 317 316 317 320 323 323 324 324 324 323 323 324 322 320 321 324 324 326 327 328 328 328 328 327 324 320
287 286 287 287 285 285 283 283 283 285 284 282 283 281 282 282 281 285 286 285 286 287 283 281 284 288 290 290 292 291 292 292 291 290 292 291 292 292 291 291 292 290 292 290 291 290 291 291 292 293 295 299 303 304 307 310 311 312 314 316 316 315 316 318 320 321 322 323 321 322 319 322 315 312 319 320 320 320 323 325 327 327 328 327 326 323
285 285 287 285 285 288 284 283 285 284 283 282 281 282 282 282 286 284 285 286 285 285 286 284 284 288 288 286 288 291 290 289 287 287 288 289 291 292 292 290 290 291 291 291 290 292 291 290 290 292 295 298 301 302 304 307 310 312 313 315 315 315 315 317 318 317 317 313 309 308 308 311 314 312 306 311 310 314 317 320 320 320 324 328 327 324
285 287 287 286 286 289 286 285 286 285 284 282 282 281 282 284 283 282 285 284 281 284 282 282 284 285 279 282 284 282 282 284 287 286 288 290 290 290 290 290 291 291 292 292 292 291 289 290 292 294 295 296 299 302 304 306 310 312 313 314 315 315 314 315 313 314 310 309 308 305 306 307 306 306 307 308 311 314 316 317 317 320 319 319 320 325
285 286 286 287 287 286 287 284 284 286 282 286 282 283 284 284 284 284 284 283 277 281 281 280 280 274 276 279 281 283 282 284 282 284 287 287 286 286 288 291 290 291 291 292 294 294 291 291 290 291 293 296 298 301 304 305 308 309 310 310 311 311 311 312 312 312 311 313 313 310 312 310 307 311 306 310 313 312 313 316 316 316 317 319 320 320
284 287 286 287 287 286 287 286 285 286 282 283 286 284 283 284 284 283 283 281 279 279 282 280 280 275 278 281 283 281 282 286 288 285 287 287 286 285 287 288 288 289 290 290 290 291 291 290 289 290 292 295 298 300 300 301 305 307 307 308 310 311 310 309 309 310 310 310 311 312 315 315 315 314 311 307 305 310 311 310 314 316 315 317 319 319
288 286 285 286 286 286 285 284 285 286 285 285 283 282 284 285 285 282 282 282 279 279 283 279 276 277 279 283 282 280 282 285 285 287 288 286 286 285 285 286 286 287 288 290 290 290 289 290 290 292 292 294 297 296 299 301 303 306 307 307 308 307 307 307 308 308 310 312 310 310 311 311 313 313 312 307 306 302 302 309 312 313 314 314 315 317
287 285 285 285 283 284 285 283 285 286 285 285 284 284 284 285 282 281 281 280 279 281 281 277 283 279 276 280 281 280 285 283 285 287 287 286 286 285 288 289 287 285 286 287 289 289 290 291 291 292 293 293 295 296 300 301 300 303 303 303 303 305 304 304 306 307 308 309 310 310 310 310 309 308 305 300 300 302 299 305 306 310 312 312 312 313
288 287 287 287 286 284 284 285 283 288 288 285 284 284 283 282 281 280 278 280 279 279 273 279 280 275 277 279 279 278 283 283 286 285 285 284 284 286 288 289 288 286 284 285 287 288 289 290 291 292 292 294 294 295 297 298 299 300 301 302 303 302 303 302 303 305 306 307 306 308 308 309 308 303 299 298 299 299 297 301 301 305 308 310 311 310
289 290 291 288 288 286 286 284 284 285 287 287 285 287 284 280 279 277 276 276 275 272 274 276 276 278 276 279 279 282 283 282 282 282 281 282 285 288 286 286 289 290 289 288 288 289 289 289 290 289 292 294 294 294 295 296 297 298 300 300 302 300 300 301 303 304 305 305 306 308 307 307 307 305 303 300 299 297 296 299 298 299 304 306 309 309
288 289 290 288 287 285 287 287 286 285 284 287 284 280 285 281 278 277 273 274 272 267 272 276 278 277 274 275 279 281 281 281 285 286 286 285 287 290 289 287 288 288 289 289 288 288 287 291 293 292 294 294 294 294 294 294 295 298 298 300 301 298 300 300 301 302 304 304 305 305 306 306 306 305 303 303 303 301 301 299 300 297 296 298 302 305
286 288 286 289 289 289 287 289 287 288 284 285 283 285 279 272 269 274 266 274 271 268 278 277 277 278 278 282 283 283 285 285 282 285 286 284 286 290 289 287 287 288 288 289 289 288 288 289 290 292 293 293 293 295 294 294 294 295 297 299 301 300 298 300 300 302 303 303 303 304 304 304 304 303 303 303 303 301 302 301 299 297 298 297 297 301
283 282 287 289 290 290 290 287 284 285 284 283 286 279 275 271 267 266 260 262 266 273 276 278 278 277 278 281 286 289 292 289 284 284 285 285 286 290 288 288 287 287 287 288 288 288 289 287 288 289 289 291 292 294 293 293 294 295 296 297 300 301 298 298 299 300 301 301 302 302 303 303 302 302 302 302 303 302 301 301 301 300 300 299 300 300
277 279 285 288 287 290 289 287 290 287 285 285 282 284 281 271 268 266 265 272 272 271 275 275 274 272 276 284 285 286 288 286 285 284 283 283 285 286 285 285 285 287 289 288 289 291 291 289 288 289 289 289 290 292 292 292 294 294 296 297 298 298 297 297 299 299 300 301 300 300 301 301 300 302 301 302 301 301 300 299 299 299 299 300 299 300
282 279 284 286 286 287 289 288 286 286 285 282 280 282 279 278 274 270 265 266 265 269 270 274 275 276 280 282 285 285 284 285 285 284 283 284 283 282 283 285 286 287 288 288 289 291 291 290 289 288 289 289 290 291 291 292 293 294 295 295 296 298 297 296 297 298 299 300 299 299 299 300 300 299 299 298 298 299 299 299 299 299 299 299 299 298
280 281 284 284 285 287 288 286 288 287 284 284 283 278 280 279 279 271 268 270 270 268 272 268 277 280 280 283 288 285 284 287 285 283 283 284 283 282 285 286 285 286 286 288 289 291 293 291 289 288 289 289 289 290 292 293 294 295 295 295 295 295 295 295 296 298 297 298 297 298 298 298 298 298 299 300 299 299 298 298 298 298 298 298 297 298
283 280 285 285 287 288 286 286 286 285 286 284 279 281 282 281 280 277 272 264 262 268 271 271 275 277 276 279 281 279 283 286 284 285 283 284 283 285 287 286 285 285 286 287 288 289 290 290 291 291 290 290 291 291 292 293 293 295 296 296 296 295 296 296 296 296 296 297 297 297 297 298 299 299 299 299 299 298 297 297 297 296 296 297 298 298
285 280 284 284 284 287 285 289 288 288 286 283 281 283 284 278 276 275 271 269 266 265 267 270 272 272 276 279 279 282 283 283 283 284 283 287 286 287 286 285 285 284 285 287 287 288 289 290 291 292 291 291 290 291 290 292 293 293 294 294 296 297 297 297 296 294 295 295 297 297 297 298 298 298 299 298 298 297 297 297 297 297 298 296 296 296
285 280 280 285 285 286 286 286 284 285 286 285 285 283 284 279 275 273 276 270 273 268 263 267 265 276 277 278 279 285 279 279 281 282 283 284 284 286 285 286 286 286 286 286 286 287 288 289 290 291 292 292 291 291 291 291 291 293 294 294 294 294 293 293 294 294 295 295 295 295 295 295 297 297 297 297 297 297 297 298 297 297 295 297 296 296
286 281 276 283 285 285 284 283 283 285 282 282 282 281 285 280 282 279 277 274 274 264 262 264 269 272 276 279 281 285 284 282 282 286 285 285 284 284 284 286 287 286 286 286 287 287 288 289 289 290 289 290 289 290 289 291 291 293 292 293 294 295 295 294 294 293 295 293 294 294 295 295 295 295 295 295 296 297 297 297 296 297 297 293 294 294
283 282 279 281 282 282 281 282 282 285 287 287 286 283 285 280 277 275 276 276 266 271 268 261 273 274 278 281 285 284 284 283 283 284 285 285 284 285 287 287 287 287 288 287 287 287 288 288 289 291 290 289 290 292 290 290 290 290 292 294 293 293 295 294 294 294 294 292 293 294 295 294 293 294 294 294 295 295 296 295 295 294 292 294 294 294
285 280 282 277 282 285 285 286 282 284 284 284 284 285 286 284 280 274 273 273 271 274 271 267 268 275 280 281 282 282 280 281 281 282 284 283 285 286 285 286 286 287 288 289 288 288 287 287 288 288 288 290 290 290 288 288 290 292 291 291 292 293 294 294 294 293 293 293 293 293 293 292 292 292 291 292 293 292 292 291 290 290 292 293 292 292
290 281 279 278 279 281 283 283 284 284 287 286 284 280 282 284 281 278 273 274 277 270 272 268 268 277 279 281 282 281 281 282 280 279 283 283 283 286 287 286 286 288 288 288 288 287 287 286 285 285 287 289 289 288 289 289 289 290 290 291 291 292 292 291 291 290 291 291 292 291 290 291 291 289 290 290 290 290 289 289 289 288 290 291 289 291
284 281 283 273 272 277 279 283 282 283 285 282 282 281 282 280 278 274 272 272 273 275 275 275 273 276 281 280 281 283 282 283 284 284 281 285 288 287 286 285 285 286 287 288 289 289 288 286 288 289 289 289 290 289 288 287 289 288 290 289 291 292 290 289 288 289 290 289 290 289 289 290 288 288 288 289 288 289 288 288 288 288 290 289 290 290
287 282 282 276 276 274 272 273 278 282 283 282 278 280 282 284 280 280 278 273 274 273 277 272 278 281 283 281 285 285 283 285 285 283 282 282 286 288 286 286 287 286 287 287 287 287 290 289 288 286 287 288 287 287 288 288 287 287 288 290 289 290 288 288 286 289 290 288 289 290 289 289 287 287 288 288 288 288 288 288 288 289 288 289 290 290
281 282 285 284 282 280 282 283 284 285 282 282 281 283 283 284 283 283 278 273 278 277 276 281 283 281 282 284 283 286 282 284 286 286 287 288 286 285 284 286 287 286 287 287 287 289 288 288 289 288 287 286 286 286 286 286 287 287 288 289 288 288 287 287 288 288 288 287 287 289 289 288 287 288 288 287 288 287 287 288 287 288 289 288 289 289
280 282 283 284 284 285 285 279 281 287 284 285 283 282 283 284 283 283 282 281 282 276 276 283 283 282 284 282 284 284 284 283 285 285 286 288 292 293 290 286 289 288 289 286 287 288 288 288 288 287 287 287 286 286 286 286 286 287 287 289 288 287 287 286 287 287 287 287 288 289 289 287 287 286 287 287 286 287 287 287 287 288 288 287 288 289
283 283 284 282 284 284 281 281 283 285 285 285 285 284 282 283 282 282 284 286 283 281 281 284 282 282 285 286 287 286 285 288 288 290 289 288 286 286 286 288 289 290 290 289 290 289 288 289 289 288 288 287 286 287 286 286 286 286 286 286 286 286 287 286 286 287 287 286 288 289 288 287 286 286 286 286 286 286 287 287 287 287 287 287 288 288
285 280 282 283 283 284 281 281 282 285 283 282 284 284 285 284 283 285 286 287 285 284 286 285 281 284 288 286 289 290 289 288 289 287 286 288 289 288 287 289 290 290 290 291 291 290 288 289 287 288 287 288 288 287 288 288 288 287 287 288 287 286 286 286 286 286 286 287 288 287 287 286 286 286 285 285 286 287 287 287 287 286 287 287 287 288
286 281 285 279 278 281 282 280 281 282 282 282 281 283 284 285 285 286 287 287 286 285 286 285 282 283 288 286 285 288 289 288 287 286 289 289 289 290 290 290 290 291 292 292 291 290 289 287 287 286 287 288 287 286 287 287 287 286 286 286 286 287 286 286 286 285 285 287 287 286 286 285 286 285 286 286 286 286 286 287 286 286 287 287 287 287
286 280 278 278 277 275 279 280 280 279 279 280 280 281 282 283 282 284 284 286 284 283 285 284 283 284 289 288 291 292 288 288 289 289 289 290 290 290 290 291 292 292 292 292 291 289 289 289 290 288 287 287 286 286 285 286 286 286 287 286 286 286 285 285 285 285 286 286 285 285 285 285 285 285 286 285 286 286 286 286 286 286 286 286 286 286
283 280 279 276 276 276 276 279 277 276 277 275 279 282 283 285 286 287 287 285 286 288 284 282 284 290 292 288 288 288 287 289 289 290 290 290 291 290 290 291 291 291 291 291 289 289 289 290 289 287 287 285 285 285 285 284 285 286 286 286 287 284 285 286 285 285 286 285 285 285 284 284 285 286 285 285 286 286 285 285 285 286 286 286 286 284
281 282 280 278 277 272 272 276 276 276 272 276 287 289 287 285 285 283 284 286 287 288 287 290 291 292 288 285 288 289 288 289 291 292 292 293 291 289 289 289 290 290 289 288 288 288 288 288 288 287 285 285 285 284 284 283 284 285 285 284 284 284 285 285 285 284 285 285 285 285 284 284 284 286 286 285 285 284 284 285 286 286 286 285 284 286
283 282 278 276 277 276 272 276 275 273 276 286 287 287 289 289 288 286 287 288 289 289 289 288 289 289 290 290 290 291 290 288 288 289 288 286 288 289 290 290 288 287 288 288 287 286 286 286 285 284 284 285 285 284 283 284 284 284 284 284 285 283 284 284 284 284 284 285 285 284 284 284 284 285 286 285 284 283 284 285 286 286 286 286 286 286
283 283 277 278 275 274 272 274 273 275 281 283 284 286 287 287 286 285 284 286 286 286 288 288 290 291 292 293 291 288 288 288 286 285 285 285 287 291 289 290 289 287 286 286 287 286 286 286 286 286 286 284 283 284 283 283 282 282 284 283 284 283 283 283 284 284 283 284 284 284 284 284 284 285 285 285 284 284 285 285 286 286 286 285 285 286
285 284 280 279 279 279 274 276 278 280 282 284 285 285 286 284 283 284 282 286 289 289 289 289 290 291 292 292 292 289 286 287 287 291 286 285 288 286 288 288 288 288 287 286 286 287 286 285 284 284 283 283 283 283 284 283 282 283 284 284 284 284 284 284 285 285 284 284 284 284 284 283 283 284 285 284 284 285 285 286 286 285 284 284 285 285
286 286 282 283 279 282 277 274 275 276 276 282 286 285 289 287 289 289 287 285 288 289 290 289 289 291 290 290 290 287 287 287 288 286 288 285 285 286 285 285 284 285 285 285 285 284 284 284 283 283 283 283 283 284 283 281 282 283 285 285 284 284 285 285 286 285 285 285 285 284 283 283 283 284 285 284 285 286 286 285 285 285 284 285 285 285
287 286 284 285 282 280 279 277 277 276 280 286 285 285 287 287 289 286 284 282 288 286 289 290 290 290 290 290 290 286 287 285 287 285 288 284 285 285 287 285 284 284 284 284 284 285 285 284 283 283 283 284 286 285 282 281 283 285 286 285 284 284 285 286 286 286 286 286 286 285 284 283 282 283 284 285 285 285 285 286 286 286 282 284 284 285
287 286 286 284 282 284 283 281 279 281 281 284 283 284 285 284 290 289 280 281 289 285 287 289 289 290 290 289 286 286 287 286 286 285 286 284 283 285 284 286 286 285 286 284 285 283 283 283 285 286 286 285 285 283 282 281 283 282 284 284 281 284 284 285 285 285 284 284 284 284 283 283 282 283 283 284 285 285 285 285 284 284 284 284 283 284
285 285 286 283 284 284 285 282 284 285 286 283 284 283 283 288 291 283 279 288 286 283 283 286 286 286 285 284 286 286 284 286 286 286 283 283 285 286 284 283 284 284 285 285 285 285 285 285 284 284 284 283 283 282 281 281 283 284 282 281 282 284 284 284 284 283 284 283 283 284 284 283 281 283 283 283 284 284 284 283 284 283 282 283 282 281
285 285 285 286 284 283 284 282 282 285 287 286 283 286 286 289 281 282 286 283 283 283 283 283 283 283 284 285 283 284 287 286 284 283 284 284 284 283 284 284 285 285 284 284 284 284 285 285 285 286 286 284 284 283 280 280 283 283 283 283 284 284 284 283 283 283 283 283 283 283 283 283 283 282 283 282 282 282 283 282 282 282 282 281 280 281
285 284 281 283 285 286 285 282 281 278 287 288 288 287 288 285 285 286 284 283 283 283 285 284 285 285 287 285 285 285 283 283 283 283 284 284 284 284 284 284 284 284 285 285 285 285 283 285 285 285 285 285 283 283 281 280 281 282 281 283 284 283 282 282 282 282 282 282 282 282 282 282 281 282 282 281 281 280 281 281 280 280 278 279 279 280
288 284 283 284 288 282 282 280 281 286 288 288 291 288 288 286 287 287 287 285 285 283 284 285 284 283 284 285 284 283 284 284 284 283 284 283 283 282 283 283 283 283 283 283 283 283 282 284 284 284 284 284 283 283 280 278 281 282 282 284 284 282 282 282 281 280 280 281 281 281 281 281 281 280 279 279 279 279 279 280 279 279 278 278 278 279
288 286 287 284 285 285 284 286 287 285 284 286 285 287 287 287 287 287 288 287 286 285 284 286 286 285 285 284 283 285 285 284 284 283 283 282 282 282 282 283 282 283 282 282 283 282 281 282 281 282 283 284 284 284 283 278 281 282 283 284 283 282 281 280 280 279 279 279 280 280 280 279 278 278 276 277 276 277 279 279 276 278 275 274 277 277
286 286 286 287 286 287 288 286 286 285 286 285 285 285 286 287 287 288 289 288 285 284 286 287 286 285 285 286 286 284 284 284 284 284 283 281 281 281 281 281 282 282 282 282 281 282 281 280 279 280 281 282 283 284 284 283 282 282 284 284 283 281 279 278 278 278 279 279 279 279 278 278 278 276 276 275 274 276 277 278 278 278 277 274 276 276
286 285 287 286 286 287 284 286 285 286 285 284 285 285 284 284 285 286 287 287 286 285 285 285 285 285 285 286 286 285 284 283 283 283 282 282 281 281 281 281 281 281 281 281 281 281 280 279 280 280 280 280 282 283 283 283 281 282 282 282 281 280 278 276 276 277 278 278 279 279 277 277 278 279 278 273 274 274 274 275 275 276 277 276 276 276
284 286 286 284 283 284 283 283 283 283 282 281 282 284 284 283 283 283 284 285 284 284 285 284 284 283 284 284 284 284 283 282 282 281 281 282 282 282 281 280 280 280 281 281 282 281 281 280 280 280 280 280 281 281 281 281 280 281 281 280 279 277 275 275 276 276 277 277 277 277 276 277 277 277 277 277 275 276 276 274 274 276 278 278 278 278
285 288 283 286 285 283 284 283 282 282 283 283 280 281 282 283 282 281 282 282 283 283 283 283 283 283 283 282 282 282 281 280 279 280 279 281 281 280 280 279 279 279 279 279 280 280 279 279 279 279 279 279 280 279 279 279 279 280 279 277 275 274 273 274 275 275 275 276 276 277 276 276 276 276 276 276 276 275 275 277 276 277 278 277 277 279
285 282 283 285 281 282 284 284 284 283 282 284 282 281 280 281 280 280 279 279 280 280 281 281 280 280 280 280 280 280 279 278 277 277 278 279 279 279 278 278 278 277 277 278 278 278 278 277 277 277 277 278 279 279 278 278 278 278 276 273 272 271 270 272 273 274 275 276 276 277 277 277 276 275 276 275 276 276 277 277 279 279 278 278 280 282
285 284 283 282 283 283 288 288 289 288 284 284 283 278 276 278 280 280 279 277 277 277 279 281 280 277 276 275 274 274 273 273 272 274 275 277 276 276 275 275 274 274 274 275 274 275 275 275 276 276 276 277 277 277 276 276 275 274 272 270 269 269 269 270 272 273 275 277 277 278 278 278 278 278 276 276 275 274 275 276 276 282 283 283 281 282
Wind_Speed
1 6 7 8 8 7 6 5 5 3 7 5 4 4 3 4 1 2 1 1 0 1 3 4 5 5 11 12 11 11 1 4 6 8 8 8 8 8 8 9 10 9 15 1 3 5 6 7 6 6 6 7 7 7 8 9 10 11 12 10 13 11 9 9 9 8 9 9 7 6 9 10 6 5 6 5 4 5 5 5 7 8 8 9 11 10
3 4 8 6 9 10 7 7 8 8 4 6 6 6 2 1 2 0 1 2 2 2 2 1 3 9 12 11 12 9 4 9 9 9 9 10 9 8 8 10 10 12 4 5 6 6 5 5 5 4 5 5 7 10 10 13 14 13 11 11 11 7 9 10 11 10 10 10 10 10 9 8 7 6 7 8 6 6 6 6 6 7 8 8 8 9
3 9 7 7 3 8 7 5 4 6 5 3 6 4 3 3 2 2 0 2 3 1 4 1 4 10 11 11 11 8 11 7 6 7 6 6 9 8 8 9 10 7 10 5 7 5 5 5 5 5 6 7 11 9 11 12 8 8 9 11 9 9 10 10 10 9 10 8 7 8 6 8 5 3 5 5 4 5 5 7 7 5 6 7 8 10
3 5 8 4 6 8 3 4 8 8 6 6 5 4 6 2 3 2 2 1 4 2 1 1 5 11 8 7 11 13 6 6 6 6 9 7 11 13 10 6 6 8 9 10 6 8 6 5 5 5 7 10 8 7 6 8 11 9 9 10 10 10 10 9 10 10 7 5 3 1 2 3 4 5 3 4 3 4 4 6 4 4 4 8 10 9
6 1 0 8 6 9 6 1 6 6 3 1 3 3 4 2 2 2 2 0 0 1 2 2 4 9 4 6 7 3 3 3 5 5 7 10 9 7 7 8 7 12 10 11 10 8 7 6 8 8 7 4 6 8 8 9 10 9 12 12 10 9 9 7 7 7 5 6 4 4 4 4 4 3 2 4 5 5 5 4 5 6 6 4 3 7
3 1 3 7 4 4 6 2 3 8 2 0 4 5 4 5 6 0 1 2 4 2 5 3 3 4 4 6 9 9 8 6 3 5 9 7 5 4 6 10 7 8 8 11 13 10 6 7 6 5 5 5 6 8 9 6 7 6 5 5 6 5 6 7 7 8 8 8 9 7 7 6 4 6 5 8 10 8 7 9 5 4 5 6 7 5
2 1 2 7 7 4 5 6 4 5 5 4 3 3 3 7 7 6 4 3 1 1 2 2 2 6 6 4 4 4 7 11 9 5 10 7 5 5 7 7 7 7 9 7 9 9 7 6 5 6 6 7 7 7 3 4 5 5 5 6 7 7 6 6 7 8 8 7 7 10 11 11 11 11 8 4 4 6 7 4 6 7 6 7 7 7
2 1 5 4 6 5 5 4 4 8 8 4 1 5 7 9 8 5 6 2 1 1 2 4 3 1 8 8 6 5 6 9 9 10 9 5 6 5 5 6 7 8 7 7 7 6 6 7 5 6 4 5 7 4 4 5 5 7 6 5 6 5 5 5 6 8 8 9 8 8 8 8 9 9 8 7 6 4 4 6 7 6 5 5 5 6
2 4 4 4 2 4 7 4 5 5 6 1 1 4 5 7 5 6 6 5 1 1 5 3 1 0 5 8 3 3 3 5 9 10 8 8 6 7 9 9 7 7 7 6 7 7 6 6 6 5 4 4 4 4 4 4 4 3 4 4 5 5 5 5 7 8 7 7 9 9 8 8 7 5 4 3 3 5 4 5 4 5 5 5 5 5
3 2 3 6 6 6 2 1 2 3 4 1 6 7 8 7 7 5 4 4 1 1 5 3 1 3 9 6 5 3 1 8 10 8 7 5 5 9 9 9 8 6 5 5 8 7 7 7 7 4 3 2 3 2 2 2 4 4 5 5 6 5 5 6 6 7 7 7 7 8 8 9 8 5 3 3 4 4 3 5 4 4 4 5 5 5
1 3 3 3 2 2 5 3 1 2 2 10 4 7 7 8 5 3 7 2 3 1 5 4 4 2 5 5 5 3 5 6 2 4 3 4 7 6 5 6 7 6 5 4 4 4 6 6 6 4 4 1 0 1 2 3 4 4 5 5 6 5 5 6 7 8 9 8 8 9 8 9 9 7 6 4 4 3 3 5 5 5 6 5 6 4
1 1 1 0 2 3 3 5 5 3 4 4 3 4 6 4 6 5 5 5 1 5 4 1 1 0 6 6 5 8 4 4 3 3 5 5 7 9 7 6 6 5 5 6 4 4 2 2 1 1 1 0 1 2 3 3 4 4 5 6 6 5 6 6 6 7 8 8 8 6 7 8 8 7 7 8 8 7 8 6 7 5 4 5 5 4
2 2 1 4 3 4 3 9 6 1 4 5 6 7 7 1 4 2 4 2 4 5 1 2 2 2 10 10 7 10 10 8 5 6 6 4 6 10 7 7 6 6 6 5 5 5 4 3 3 2 0 0 1 2 3 4 4 4 5 6 7 7 6 7 7 8 8 7 8 8 8 7 6 6 7 8 7 6 7 7 6 5 6 5 5 6
3 1 2 2 2 3 3 10 2 1 1 4 8 6 6 2 2 2 2 1 5 5 3 1 1 4 4 8 13 19 18 6 4 8 7 5 5 10 8 9 9 9 6 5 4 5 5 4 3 3 3 1 0 1 2 3 4 4 5 5 7 7 7 6 6 7 7 8 7 7 7 7 6 7 7 7 8 7 7 6 7 7 7 7 8 7
5 3 6 5 2 1 1 2 10 7 8 5 1 6 8 8 5 4 3 4 5 4 2 3 1 7 3 1 0 8 9 7 5 4 4 5 8 8 6 8 9 8 7 4 5 5 5 3 3 3 3 3 2 2 2 3 4 4 4 5 6 5 5 6 7 6 7 7 7 6 6 6 6 7 7 7 7 6 7 6 6 7 6 7 7 8
6 3 2 2 2 2 6 1 3 6 6 0 2 4 5 5 6 1 3 2 0 1 2 1 6 4 5 3 10 4 6 7 5 6 1 6 5 4 4 4 5 6 6 5 5 6 5 2 3 4 4 4 3 2 2 4 4 4 4 3 3 4 4 5 5 6 7 7 6 6 7 8 7 6 5 5 5 5 5 6 7 7 7 6 6 5
3 4 1 7 3 3 0 1 1 1 7 4 3 3 2 2 11 7 2 1 1 4 7 2 8 7 8 7 10 6 4 8 1 4 3 5 3 1 1 3 6 6 6 6 5 5 8 5 3 2 3 4 3 2 3 4 4 5 4 4 5 5 3 4 6 6 5 5 5 7 6 5 6 7 8 8 7 7 6 6 6 6 7 6 5 6
9 3 2 3 1 1 0 0 2 5 2 9 1 6 2 2 5 5 3 2 4 3 8 2 7 6 3 8 5 5 6 9 5 6 4 5 4 5 1 3 4 3 4 6 6 6 7 6 6 4 3 4 3 2 3 4 4 5 5 6 6 5 7 8 6 6 5 6 6 5 6 7 9 9 9 8 8 7 6 6 6 5 5 7 7 6
6 3 0 1 0 6 2 0 5 3 3 2 2 4 5 2 1 2 4 1 1 2 5 4 2 6 6 7 5 3 1 4 5 5 4 7 5 6 3 4 5 6 6 6 6 7 7 5 5 5 4 1 1 2 3 4 3 4 4 5 6 8 7 6 5 5 4 4 5 5 6 7 8 7 7 7 7 6 8 8 8 8 8 5 5 6
1 5 2 1 2 1 2 3 9 2 4 2 3 4 0 3 2 4 6 3 4 5 2 7 3 6 6 7 8 8 5 3 1 1 5 5 5 5 4 4 4 5 4 5 5 5 6 6 5 5 5 5 3 3 4 4 3 5 6 6 6 5 4 4 4 5 5 5 5 5 5 5 5 6 6 6 7 8 9 9 8 8 6 8 6 6
3 1 4 1 2 2 3 3 8 9 9 2 2 1 0 2 1 4 1 3 4 5 5 1 6 5 6 7 5 9 8 6 5 5 3 3 3 4 3 2 3 3 3 3 4 4 4 3 3 3 3 3 3 1 1 1 3 5 4 5 5 6 5 5 4 4 5 4 5 5 7 7 6 7 6 6 7 8 8 7 7 8 8 5 7 6
3 1 7 2 3 4 5 1 2 6 5 9 11 10 11 9 4 4 7 3 2 3 4 3 9 5 9 4 9 9 6 5 5 2 2 1 1 1 1 1 1 2 3 3 2 3 4 4 5 5 4 3 4 5 5 3 2 4 5 5 4 4 5 5 4 5 4 4 5 6 6 7 6 6 6 7 7 9 8 6 6 5 4 7 7 8
4 3 8 4 6 7 2 0 2 0 1 2 4 8 7 4 6 5 7 5 3 0 5 2 1 11 8 3 5 5 5 5 5 4 4 3 1 0 1 2 2 3 2 3 3 1 3 4 3 3 4 5 6 6 4 3 2 4 4 5 5 5 5 4 4 4 4 5 6 7 7 6 7 6 7 7 7 7 7 5 5 4 6 7 6 7
5 4 4 2 2 3 2 2 2 1 0 2 4 2 5 8 6 6 2 6 8 2 1 1 2 9 5 1 3 5 5 6 6 4 6 2 2 3 1 1 4 5 5 6 5 3 2 4 3 3 3 3 4 5 4 4 4 3 4 5 5 7 4 3 4 4 4 5 6 6 6 7 7 6 7 7 5 6 5 5 5 4 6 6 5 7
5 3 8 3 2 3 3 2 1 2 1 5 3 3 2 4 6 3 5 1 1 8 8 8 8 7 3 3 3 2 3 4 4 5 5 3 3 2 1 3 4 4 6 6 6 5 5 5 3 3 4 4 5 4 2 3 4 4 5 4 6 7 5 4 4 4 5 5 6 6 7 8 5 6 6 6 5 7 6 6 6 5 7 6 7 6
4 5 9 7 10 9 6 6 11 14 13 2 1 2 5 8 8 5 5 1 3 3 7 5 11 3 2 3 3 3 2 5 6 4 3 4 2 1 2 3 5 5 7 5 6 5 6 7 5 3 4 3 3 4 6 5 4 4 4 6 6 6 4 3 3 5 6 5 6 6 7 7 4 5 6 7 6 7 6 6 5 6 6 6 7 6
3 1 6 11 14 15 15 11 2 11 6 6 5 9 7 6 7 4 6 5 11 4 7 12 13 2 3 4 3 5 2 4 4 2 4 3 5 6 4 4 4 7 6 5 5 5 10 3 4 4 2 4 4 5 5 4 5 5 5 6 5 5 4 4 4 5 5 4 5 5 7 4 5 6 6 6 6 5 5 6 6 6 7 6 7 7
3 4 8 9 12 14 9 4 4 7 9 10 11 10 10 10 10 11 10 13 6 9 10 14 10 10 13 3 6 5 6 5 6 5 6 6 5 7 5 4 7 8 8 5 5 8 5 6 6 5 2 2 4 5 5 4 5 5 5 7 4 3 3 3 3 4 4 3 5 6 6 4 5 5 5 5 4 5 5 5 6 7 6 5 7 7
6 8 8 6 11 10 2 5 6 6 8 8 13 12 11 13 11 13 15 18 8 11 19 13 8 12 14 9 8 9 7 6 5 6 4 3 4 5 6 7 8 9 9 8 9 8 6 6 6 6 5 4 4 4 3 3 3 4 4 4 4 3 3 3 3 3 3 4 5 6 5 5 4 4 4 4 4 5 5 6 6 6 6 6 7 7
3 6 5 7 12 9 3 4 4 8 4 3 9 12 15 14 16 18 19 19 16 16 18 9 9 16 14 8 12 11 8 6 4 2 3 3 6 6 6 9 9 9 9 9 9 7 5 5 5 5 5 7 5 5 6 6 5 5 5 7 5 4 3 1 3 3 4 4 5 4 4 4 4 4 3 4 5 5 5 6 6 6 6 7 6 6
5 5 6 4 4 6 6 2 1 5 5 5 3 7 10 14 17 20 19 19 16 15 15 9 6 15 9 8 8 10 8 2 3 5 8 8 7 10 10 9 9 10 11 11 9 8 5 5 5 5 5 6 6 5 5 5 5 4 5 4 5 5 4 1 2 2 3 5 4 4 4 4 4 3 4 4 4 5 5 6 6 6 6 6 6 6
3 4 2 3 4 5 3 8 6 3 2 0 1 5 10 12 13 14 15 11 7 10 12 9 13 17 10 13 9 13 5 5 8 8 9 10 10 9 10 12 11 11 11 11 10 6 6 7 7 6 5 5 5 5 4 4 4 4 5 4 4 4 3 1 2 3 3 4 4 3 3 4 4 4 4 4 5 5 6 5 5 6 6 5 6 6
5 5 4 4 5 6 2 5 6 8 4 3 9 13 19 18 16 12 9 4 9 14 13 11 18 18 13 7 7 6 4 8 9 10 11 11 11 9 10 11 11 10 11 9 7 7 7 7 6 5 5 4 4 4 4 3 4 4 4 4 4 3 2 1 1 3 3 3 4 4 4 4 4 4 4 4 5 5 5 5 6 6 6 7 6 4
4 6 5 3 5 3 2 7 5 7 7 13 12 17 15 15 17 13 8 14 15 11 11 16 18 15 4 4 9 10 10 11 12 11 9 8 7 7 8 9 10 9 7 7 7 7 7 6 5 5 4 4 4 3 4 3 3 5 4 4 4 3 3 3 3 3 4 4 4 4 4 4 4 5 5 4 4 4 5 5 7 6 5 5 5 6
8 6 5 3 3 3 2 7 5 8 12 10 3 3 14 19 15 18 20 20 19 16 14 12 10 13 14 10 11 13 6 4 4 6 5 2 4 6 8 8 7 6 8 6 5 5 5 5 4 3 3 2 3 3 2 2 1 3 4 3 4 3 3 2 2 4 4 4 4 4 4 4 4 5 6 4 4 4 5 6 6 6 6 5 7 7
8 9 4 0 4 4 3 4 5 9 6 3 2 6 4 8 8 7 10 11 7 6 11 15 19 20 19 16 8 4 3 5 4 4 3 4 6 8 7 7 6 3 4 4 4 3 2 1 1 2 3 1 2 3 2 2 3 3 4 3 2 3 3 2 2 3 3 4 4 4 4 3 5 5 6 5 5 5 7 6 7 8 6 5 6 7
7 4 3 4 4 8 6 8 9 3 6 1 3 3 9 9 8 11 12 15 18 16 16 18 21 20 16 14 11 1 1 1 5 7 1 3 4 1 2 1 1 1 1 2 1 1 1 3 2 2 2 3 2 2 3 3 3 3 3 4 4 3 2 2 3 3 3 4 4 4 3 3 4 5 6 5 5 6 7 7 7 7 4 6 7 7
5 9 3 7 4 5 5 3 0 3 11 11 10 1 0 4 11 13 11 10 5 9 14 15 16 17 15 12 9 2 3 5 11 7 5 5 2 2 3 3 2 2 2 4 3 2 3 2 2 1 1 3 3 2 2 3 4 4 5 6 5 6 5 4 5 5 4 5 4 4 4 3 4 5 6 5 7 8 7 6 6 6 4 6 7 7
1 3 2 8 2 4 5 6 7 8 10 9 9 4 2 6 10 6 4 12 6 6 11 14 16 16 15 12 10 5 2 6 11 3 3 4 3 4 6 4 4 4 4 3 3 5 5 5 4 2 2 2 6 6 4 4 5 6 6 6 6 5 6 6 6 6 7 8 6 5 5 4 4 5 6 7 7 6 7 7 7 6 4 6 6 8
5 3 3 3 5 4 5 8 11 4 5 3 2 1 2 4 10 9 8 10 9 1 6 11 14 15 13 9 2 5 8 10 10 1 2 2 2 3 4 5 6 6 7 5 4 4 4 4 6 7 7 8 6 5 5 4 5 5 4 5 4 5 5 5 5 5 5 6 6 5 5 4 5 5 6 7 7 6 7 6 6 6 6 6 6 7
6 2 7 13 12 13 14 9 5 7 4 4 3 3 3 5 11 9 17 10 1 1 2 4 8 6 3 4 7 6 4 3 3 1 2 2 3 6 5 3 3 3 5 6 7 7 7 6 5 5 4 4 5 5 4 4 4 4 4 4 4 5 4 5 5 5 6 6 6 6 6 5 5 7 7 5 7 7 7 6 7 6 5 6 6 6
6 4 2 6 10 12 12 14 13 7 6 6 1 6 5 7 7 14 3 1 6 3 1 3 5 1 4 5 4 5 6 3 3 2 5 5 5 3 4 4 5 5 4 4 6 8 8 7 7 7 6 5 7 5 4 4 5 5 6 6 6 5 5 5 6 6 7 8 8 8 7 7 7 5 7 6 5 7 8 5 5 5 5 6 5 7
11 10 8 11 7 5 5 9 7 13 5 4 10 2 2 5 4 3 5 1 1 2 6 4 5 3 8 8 6 9 7 5 5 4 5 5 6 7 7 8 9 8 9 10 11 9 8 9 10 9 7 7 6 7 5 4 5 6 5 6 6 5 5 5 6 7 7 8 8 8 8 8 7 8 6 7 6 6 9 7 6 6 4 5 5 6
4 5 2 3 6 9 11 12 9 3 1 3 5 8 4 3 2 5 5 6 0 2 4 7 5 3 5 11 9 7 5 6 5 4 4 6 5 4 4 4 4 5 5 4 4 6 7 7 7 8 7 5 5 6 5 4 5 6 7 8 6 7 7 7 6 6 8 8 8 9 9 8 7 6 6 7 7 6 7 8 6 6 5 5 5 6
6 8 6 8 3 7 4 3 1 2 1 1 2 1 0 1 1 4 5 5 7 2 1 6 6 4 5 8 7 6 6 5 4 4 6 4 5 5 6 6 6 6 6 6 6 7 6 7 9 9 9 7 6 5 6 4 7 9 10 9 7 9 9 9 9 9 9 9 8 8 8 7 6 6 6 6 5 7 7 7 5 6 3 3 5 4
3 1 1 2 3 2 1 1 2 2 1 1 4 2 2 3 5 5 9 10 2 2 2 8 5 6 5 5 9 4 4 3 5 5 4 4 4 4 4 5 6 6 5 5 6 9 7 7 6 6 10 10 7 6 5 6 5 8 10 9 9 9 8 8 9 10 10 9 8 7 7 9 8 5 6 6 5 6 6 7 7 6 6 2 5 5
2 1 1 3 1 6 6 3 3 4 2 3 4 4 6 6 5 3 7 7 7 5 6 4 6 5 5 5 8 7 5 3 5 4 4 4 5 4 4 5 6 6 7 9 7 7 8 6 8 9 10 12 11 10 9 7 5 6 7 9 9 9 8 9 8 10 9 9 10 8 7 8 8 8 7 4 5 6 6 6 6 6 6 5 5 5
4 3 1 0 1 3 1 2 1 2 2 1 1 4 5 5 7 7 6 5 6 6 6 4 3 5 3 7 4 7 6 4 5 5 4 5 4 4 4 5 6 7 8 7 8 9 8 8 9 9 10 10 10 10 10 9 8 8 8 8 8 9 9 9 8 9 9 10 8 8 7 8 8 8 8 6 5 7 7 5 4 5 6 6 6 6
3 6 4 5 3 1 2 1 1 2 3 2 2 2 2 4 6 6 5 6 6 9 9 9 8 6 6 6 5 5 7 5 5 4 4 3 4 5 6 6 6 7 8 9 10 10 9 9 10 10 11 10 9 8 8 8 8 8 9 8 8 9 9 9 9 9 9 8 7 7 6 6 6 6 7 8 7 5 6 7 7 6 7 5 6 7
5 5 2 5 4 4 7 6 6 5 4 6 6 4 3 3 7 8 6 8 7 8 6 9 8 7 7 7 6 5 6 4 5 4 3 4 4 6 7 7 7 8 8 8 8 8 8 8 9 11 11 10 9 9 9 9 9 7 7 9 8 8 8 9 8 8 8 7 7 7 7 6 6 6 6 7 7 8 7 7 9 8 7 8 7 11
7 6 6 6 7 8 8 13 15 4 2 1 9 6 2 1 6 10 9 7 5 5 4 4 6 4 6 7 7 6 4 4 3 3 2 2 4 4 5 6 7 8 8 9 9 8 8 7 7 8 9 9 8 9 9 9 9 6 8 9 9 9 9 9 8 7 6 7 7 8 8 8 7 7 6 6 6 6 7 9 5 9 13 13 11 9
Wind_Direction
110 138 177 191 192 187 196 176 169 177 152 102 75 94 168 165 274 277 280 281 44 103 247 247 274 274 275 271 277 284 284 293 280 273 260 253 256 253 249 241 242 243 243 285 226 238 236 233 222 218 203 208 203 205 200 201 206 203 202 191 206 201 192 191 191 189 188 195 199 209 207 216 202 218 203 213 216 202 200 190 193 192 197 194 191 193
69 148 224 198 190 189 173 124 109 74 62 140 144 153 205 199 138 201 120 345 324 145 282 23 320 273 263 275 273 280 317 274 255 257 261 259 248 250 249 256 244 242 290 298 282 266 264 255 254 235 214 195 196 214 197 202 207 204 199 199 207 183 191 197 196 194 194 197 200 195 206 206 200 198 209 215 214 215 196 193 201 186 183 186 194 193
164 201 222 208 119 89 92 84 69 121 114 64 147 165 122 249 240 289 305 360 331 105 267 9 339 278 274 267 272 261 255 250 234 221 242 247 263 253 250 253 267 286 275 271 257 271 255 256 251 221 213 214 214 208 200 211 199 196 198 206 198 191 190 199 196 191 202 201 198 195 199 195 201 230 210 217 208 204 217 200 197 205 177 181 194 187
189 282 238 155 136 111 62 76 93 73 67 111 103 119 199 237 132 243 281 4 2 81 317 287 312 282 279 277 263 265 252 264 265 257 258 238 250 251 248 255 270 276 274 275 267 263 263 249 242 224 220 219 212 210 205 201 201 197 201 203 196 195 194 194 195 198 196 173 146 119 135 174 164 187 195 211 235 228 220 232 212 203 224 203 188 189
182 243 329 139 146 141 142 122 117 108 118 359 122 128 125 158 221 147 187 32 301 69 63 356 302 295 328 316 310 320 331 305 285 316 280 263 244 268 291 282 246 260 267 277 279 258 254 261 250 227 227 210 206 210 208 201 201 198 203 202 196 190 191 190 183 180 150 125 115 106 69 76 82 48 113 182 229 217 218 217 212 222 197 228 267 200
259 311 134 114 128 108 120 146 195 126 83 80 227 170 190 171 135 267 26 94 21 341 5 51 347 310 300 284 251 286 345 333 288 334 290 271 288 297 279 268 269 252 248 248 259 258 228 230 254 268 256 225 220 218 217 204 206 199 204 188 186 180 176 182 177 169 160 169 168 162 162 166 181 205 179 201 207 203 206 212 204 201 203 220 212 213
198 4 117 160 144 140 146 171 210 146 157 115 238 158 144 137 120 122 116 76 59 151 351 16 169 269 324 310 285 332 331 304 308 281 273 291 296 278 261 269 271 266 274 261 264 271 273 247 231 245 234 221 220 229 196 196 200 200 190 181 178 181 176 168 167 167 166 170 178 187 193 197 200 208 217 204 198 196 211 198 199 208 209 209 213 225
94 56 69 73 108 126 134 197 219 142 122 196 286 120 116 115 122 147 104 102 166 252 292 44 99 237 305 282 270 325 324 303 309 299 293 311 301 281 269 272 271 265 251 267 274 287 271 273 248 250 223 220 227 213 187 196 193 194 189 170 174 166 164 169 163 171 179 180 185 192 204 208 213 213 213 189 202 190 175 197 209 212 217 212 222 224
118 161 146 124 83 118 178 210 184 140 130 213 222 131 119 122 132 113 91 104 127 48 279 333 336 288 256 268 313 355 339 310 298 279 289 309 301 307 316 309 295 272 261 250 266 267 271 273 270 252 248 235 213 199 193 196 188 168 147 146 143 157 158 167 168 173 187 188 188 194 199 214 225 219 216 160 160 179 184 202 211 218 219 223 225 225
342 161 220 147 134 181 226 10 97 113 97 253 132 100 96 84 73 87 103 83 351 72 270 225 15 202 279 275 331 336 237 261 258 277 282 264 279 299 309 312 312 304 280 264 250 261 267 263 272 268 267 254 212 195 167 146 140 141 137 142 150 160 162 164 169 177 186 191 185 196 204 214 220 213 214 157 177 191 177 206 210 217 220 223 224 223
243 314 192 81 164 169 125 46 122 23 113 133 132 79 45 41 34 34 60 87 61 345 252 252 301 164 294 273 226 147 213 197 251 303 288 300 303 293 274 285 305 313 315 300 288 260 250 257 257 289 286 281 55 85 124 131 135 135 139 143 153 169 161 166 176 179 189 192 193 201 203 209 215 211 201 200 219 194 180 210 215 207 218 218 225 217
22 356 53 303 80 102 102 75 26 82 91 128 102 132 81 359 14 31 348 32 118 269 262 263 272 231 188 290 284 243 278 227 199 249 278 305 301 306 316 304 304 318 320 311 315 313 325 2 341 12 295 345 34 82 100 116 119 136 145 149 154 167 172 177 178 183 192 192 201 206 203 209 215 204 200 209 217 206 212 209 213 210 209 227 233 235
39 78 243 344 209 117 119 87 1 6 352 86 96 82 113 238 36 292 14 276 215 200 240 339 178 340 241 232 263 288 272 252 203 212 233 234 284 302 300 299 308 316 318 315 310 320 342 345 307 308 298 25 78 154 145 146 148 147 152 161 163 187 183 184 181 190 194 193 201 201 204 212 206 205 205 212 219 208 213 208 212 196 213 207 216 224
273 276 11 321 33 223 146 125 122 149 332 107 129 132 100 107 66 229 278 268 309 295 274 327 174 264 255 274 242 248 258 268 206 221 229 210 234 276 293 318 321 314 302 290 298 302 286 282 287 287 293 283 202 176 179 159 157 168 168 174 179 194 186 186 189 194 194 204 203 200 204 207 197 208 207 213 214 216 214 205 214 209 209 208 212 210
140 283 258 146 190 151 81 156 173 156 159 200 51 138 174 143 155 203 197 203 216 205 287 282 59 234 113 242 213 226 253 295 279 265 245 233 246 266 298 298 293 292 297 299 299 280 272 282 269 278 287 277 223 195 192 182 177 172 184 182 192 197 198 193 198 192 203 207 205 203 205 203 199 209 209 216 214 215 212 213 216 218 212 213 216 209
204 193 273 305 251 314 159 275 109 103 50 267 169 88 93 215 139 124 207 141 256 342 357 219 216 189 176 281 286 238 278 292 293 292 291 264 251 294 322 309 285 280 287 301 293 290 283 254 267 277 287 274 262 220 188 190 183 182 195 192 217 226 210 208 205 210 205 210 203 201 202 208 205 209 213 222 220 221 211 216 212 221 214 218 215 213
36 226 350 310 34 67 39 276 326 131 176 220 106 186 205 125 97 98 61 11 78 42 260 168 311 287 300 320 283 319 313 280 301 296 292 276 299 306 23 296 275 279 282 288 297 301 303 314 295 242 255 268 256 246 212 204 192 188 184 185 207 217 214 220 226 221 214 213 205 211 209 205 205 207 211 215 216 214 215 214 217 218 221 215 209 214
149 219 1 59 98 1 133 168 98 32 141 95 173 224 174 135 124 123 203 352 63 185 265 81 235 297 23 283 330 344 312 286 301 279 288 305 322 330 322 281 277 276 283 293 289 280 273 273 278 260 221 236 251 245 252 229 208 200 192 192 200 205 211 215 206 221 219 216 218 216 213 213 210 209 214 213 214 209 211 217 217 219 220 215 213 205
121 82 339 23 129 285 1 316 47 16 42 137 198 193 109 211 199 323 90 242 156 271 273 298 286 261 189 244 332 329 284 271 273 282 311 275 293 284 282 284 299 300 311 309 311 314 311 308 306 314 312 286 254 252 243 257 231 212 209 204 198 209 214 211 200 201 218 218 224 220 223 219 219 219 218 216 213 207 213 215 212 213 219 215 207 207
63 137 288 348 133 294 356 91 195 197 344 33 81 81 87 99 152 124 198 176 128 244 58 287 36 251 200 218 201 229 235 236 257 326 252 251 244 261 272 285 295 299 286 286 289 293 296 298 294 303 314 318 291 241 226 225 224 219 215 204 212 222 217 212 205 202 218 218 220 229 229 237 231 231 226 219 213 217 218 216 208 210 209 214 205 206
156 110 161 277 290 83 184 200 214 158 144 58 91 192 139 34 228 104 32 130 180 174 183 225 315 279 258 212 188 223 220 225 199 236 297 305 243 242 250 259 280 279 285 280 270 269 265 272 298 301 283 274 262 242 241 209 231 244 235 221 215 212 219 222 218 204 224 206 225 226 230 228 223 229 220 226 223 229 232 225 214 209 208 193 206 199
96 170 164 128 57 219 236 242 191 178 197 171 165 190 173 129 142 165 254 33 90 118 226 132 260 255 270 191 202 214 242 246 251 225 268 265 262 253 269 269 230 262 246 240 262 290 313 318 328 323 320 303 356 354 352 328 297 272 259 257 230 223 224 218 219 211 219 212 218 227 233 232 229 223 219 226 225 228 233 232 230 229 210 209 206 191
140 127 104 164 205 190 203 24 250 303 72 197 168 219 173 170 109 136 203 236 54 297 103 154 303 270 243 217 216 243 264 263 257 201 240 263 254 279 256 238 233 222 250 278 292 247 246 266 265 282 300 313 322 310 300 283 261 275 279 278 267 242 238 208 217 205 209 212 219 230 229 232 230 220 224 228 233 237 239 236 237 229 229 234 222 206
94 98 83 335 320 317 328 309 53 91 92 323 273 101 154 196 177 162 147 180 153 166 107 343 267 255 287 239 233 239 258 271 264 205 223 254 261 240 269 315 338 341 338 314 277 264 254 265 265 261 271 272 261 268 289 299 291 267 251 250 257 253 249 218 211 211 210 219 230 231 231 233 230 222 226 230 234 243 242 238 236 222 234 240 234 226
155 259 131 124 22 346 345 350 352 344 69 213 200 192 145 86 80 135 103 97 126 214 164 127 233 278 273 335 305 274 319 304 276 250 201 230 194 230 278 309 315 302 300 310 312 317 336 332 320 302 288 297 310 308 274 254 251 248 260 258 249 252 238 217 208 206 218 217 233 236 235 242 229 229 233 236 232 237 234 232 233 224 228 229 236 235
174 168 140 151 172 178 194 189 214 213 207 174 104 108 166 149 146 130 197 74 194 269 152 171 241 248 281 328 336 295 323 300 275 264 275 221 272 285 301 289 278 281 275 275 310 328 289 261 249 262 290 306 308 298 305 303 287 270 260 251 239 249 244 225 200 213 217 218 229 246 244 247 234 233 234 234 236 238 234 233 229 231 234 222 233 231
165 138 191 187 189 204 207 209 48 87 69 182 213 153 187 183 172 134 107 113 212 203 175 229 231 232 257 252 278 245 262 233 266 271 243 266 264 257 269 283 273 251 253 276 271 285 258 265 337 340 303 292 290 288 279 272 277 274 270 270 253 240 233 226 205 222 222 225 235 255 254 246 231 227 233 233 238 237 236 235 234 230 235 220 227 232
87 179 215 206 220 218 214 170 212 149 168 199 155 186 178 169 177 162 180 215 182 85 255 237 217 237 233 223 242 246 264 262 251 230 233 239 288 301 274 255 282 310 310 313 288 254 297 335 322 321 302 267 266 267 271 260 252 253 253 268 274 256 242 247 222 244 249 252 262 256 268 257 241 235 237 237 238 239 239 240 236 234 236 220 226 227
151 199 220 176 234 231 139 169 165 160 186 183 182 173 168 182 167 181 213 224 138 198 229 241 142 226 243 175 216 221 205 218 231 268 315 330 273 261 287 308 299 287 295 305 295 318 320 309 296 303 302 276 274 275 269 271 270 269 273 262 274 279 262 241 232 259 260 262 259 265 269 275 265 247 245 245 247 248 247 243 243 242 236 231 234 230
144 236 196 176 219 229 209 158 188 169 184 123 182 182 183 170 187 196 214 220 200 221 233 241 166 229 239 185 206 227 226 226 243 26 343 296 264 264 283 273 272 280 283 283 290 299 294 267 275 283 297 315 319 320 327 327 324 325 321 318 323 322 296 189 230 242 260 259 264 280 284 274 273 267 262 260 250 250 248 246 244 241 242 240 238 240
157 264 120 132 198 253 224 187 124 200 160 196 212 190 183 189 197 204 214 222 219 237 249 267 283 275 252 155 205 240 238 257 319 264 244 249 262 257 254 264 272 272 278 290 290 273 279 290 278 285 301 300 313 309 307 298 302 318 316 305 313 318 315 210 249 245 254 266 279 278 271 280 284 276 264 251 255 255 251 249 245 246 248 249 245 243
151 248 45 89 177 282 206 174 203 87 65 140 189 176 198 198 209 220 217 219 186 218 239 248 264 258 253 134 213 232 193 180 226 236 238 240 240 249 251 257 263 268 271 269 275 289 297 298 291 295 305 299 299 305 307 306 316 330 315 321 315 308 307 232 239 254 262 254 262 279 301 294 285 276 264 260 256 252 252 254 252 252 251 254 252 245
178 140 143 138 182 240 293 161 125 106 78 302 245 215 202 205 209 218 230 235 205 203 213 215 236 245 244 167 208 248 171 221 228 232 239 245 242 236 245 249 254 259 257 261 277 285 277 276 300 321 302 291 289 302 291 284 314 306 296 309 295 305 305 279 266 280 287 304 327 319 303 290 286 281 278 264 259 257 257 251 256 255 253 252 248 250
140 156 178 183 170 246 69 110 113 92 203 227 224 213 188 200 207 209 210 215 221 187 211 213 231 247 261 133 200 238 216 214 220 230 223 229 241 244 249 251 248 252 273 281 263 268 289 302 307 305 290 278 276 270 288 299 269 275 283 285 304 330 330 355 341 340 311 324 319 312 307 300 294 287 278 271 262 257 255 253 253 255 248 254 251 244
172 174 182 166 157 197 144 112 88 207 236 232 243 155 199 211 200 201 219 217 218 213 228 253 270 268 250 221 215 227 238 267 260 249 262 233 211 227 236 249 250 240 247 267 294 285 276 285 299 300 313 321 311 302 310 306 282 310 323 339 338 342 345 7 344 322 313 312 305 305 304 301 289 286 287 280 273 271 266 261 267 263 254 240 242 243
173 169 142 173 132 53 81 154 208 232 227 298 204 197 199 195 209 200 262 268 260 216 211 236 243 247 248 247 241 220 221 249 294 260 228 247 219 222 227 238 268 280 274 250 242 269 283 296 281 286 287 279 326 325 318 302 310 336 317 324 12 346 3 9 349 309 311 305 297 294 287 288 292 291 293 295 290 278 273 267 258 262 256 243 246 245
160 114 135 202 188 201 177 201 221 341 338 207 225 220 167 170 153 175 227 244 227 213 202 217 233 243 253 258 256 272 129 357 319 291 260 257 299 316 241 266 264 290 267 305 247 282 286 270 259 267 270 310 320 318 334 321 324 331 341 9 4 4 356 350 339 326 309 300 300 294 288 268 272 282 287 284 283 275 270 269 267 259 243 251 247 248
159 172 221 175 238 165 156 224 331 214 242 241 226 250 79 163 175 184 188 255 237 215 208 214 231 239 247 256 261 227 79 325 292 291 356 345 331 69 71 63 40 27 10 346 349 330 330 318 293 283 272 331 350 2 342 341 352 3 9 359 5 8 359 6 353 340 330 319 310 302 298 282 266 278 283 284 275 275 274 266 264 260 239 242 255 252
55 90 132 178 246 135 204 226 226 224 233 227 243 228 199 160 140 116 158 247 253 211 192 195 219 233 237 241 247 94 161 254 262 255 331 340 352 44 69 45 52 38 37 19 12 356 346 344 323 299 338 355 14 352 357 2 13 16 2 358 355 358 355 353 340 341 334 321 317 313 310 300 290 279 282 282 278 275 277 270 266 263 241 243 246 256
159 159 113 180 210 213 204 221 236 227 256 246 236 217 201 152 117 108 213 243 245 129 189 181 207 223 230 235 171 140 184 230 248 251 323 330 301 344 48 33 27 19 17 8 20 8 333 337 9 20 18 14 351 330 348 1 14 19 1 347 354 354 344 327 315 306 300 297 301 301 300 292 289 280 275 279 281 279 270 275 279 270 260 257 246 260
176 173 190 206 208 221 224 249 282 280 266 234 209 202 185 170 136 172 222 233 205 254 248 172 213 221 175 160 149 183 230 186 142 139 350 2 66 33 29 21 21 22 21 12 5 358 11 8 25 10 345 332 328 334 341 4 15 353 344 339 352 337 316 306 304 306 302 299 299 298 294 292 280 288 284 272 280 282 281 275 273 278 270 271 268 264
192 168 216 198 216 215 216 225 230 254 238 179 255 150 175 113 206 218 214 109 136 151 77 147 124 134 149 140 146 123 142 133 81 75 67 55 76 57 41 30 34 35 32 22 17 17 7 359 358 357 3 5 349 344 352 6 4 342 344 348 335 314 309 315 311 311 311 307 305 302 300 297 296 281 284 291 288 291 282 271 266 269 275 276 280 282
182 179 182 193 194 217 204 227 222 236 248 122 114 61 275 183 240 126 134 13 59 104 106 68 79 98 114 93 90 113 111 91 87 80 80 59 49 37 25 28 29 22 10 5 5 7 9 0 353 349 343 345 349 345 351 11 350 333 328 323 308 317 319 319 316 313 307 303 301 300 299 299 298 300 303 296 287 280 284 290 291 282 275 278 281 276
186 187 153 209 183 199 200 207 208 256 151 239 157 196 189 193 162 150 133 111 117 129 105 97 56 62 80 110 114 98 99 101 65 56 69 49 45 31 37 37 40 30 22 19 16 355 1 355 347 340 340 352 1 349 349 357 335 326 329 323 327 333 328 323 318 310 307 303 301 303 302 299 297 293 289 284 287 283 280 286 278 277 266 263 263 277
197 199 176 197 173 196 217 208 243 194 179 301 96 100 61 19 146 176 105 108 129 92 84 92 104 86 103 107 99 109 90 74 95 72 70 35 36 29 21 17 17 16 9 7 1 357 4 358 338 334 331 347 4 6 4 11 352 333 329 322 340 329 327 323 320 315 306 304 301 298 294 293 288 288 286 284 283 286 279 275 268 274 259 227 263 257
341 213 296 105 231 116 72 148 134 52 104 49 43 37 73 70 52 83 118 117 37 110 133 123 129 116 115 113 101 64 87 117 86 56 61 49 48 24 20 10 10 8 9 6 4 4 350 340 340 344 338 336 358 2 13 1 349 329 316 322 325 323 322 319 316 310 307 306 304 302 308 307 303 291 283 283 271 261 266 268 279 272 283 250 254 252
262 108 110 189 240 161 241 112 105 156 99 39 85 67 56 49 48 53 90 89 120 107 93 79 105 101 102 102 109 121 103 91 75 56 46 48 42 29 26 12 0 2 357 357 352 353 352 352 351 347 344 335 343 350 350 354 348 321 314 321 323 326 325 319 314 308 310 314 313 314 317 311 309 313 308 291 284 266 265 269 268 271 275 261 258 261
282 165 84 251 45 186 288 53 348 32 74 3 24 101 84 66 61 48 62 86 92 79 76 80 88 78 67 72 75 102 95 62 67 38 29 22 22 22 16 11 357 350 353 351 348 354 351 357 352 343 340 335 335 341 340 341 340 335 335 334 338 334 329 323 319 313 311 309 306 305 307 302 301 304 303 299 293 297 295 269 250 263 259 252 244 253
171 114 196 181 146 159 56 29 186 85 46 72 48 27 62 107 110 80 71 76 84 87 78 62 54 65 70 70 61 93 88 63 48 38 22 5 13 19 6 359 352 349 343 350 352 356 349 344 340 337 330 327 330 332 333 334 334 341 349 349 344 340 333 323 318 312 306 302 300 298 297 292 294 296 299 302 300 272 254 277 283 261 266 244 227 234
103 191 207 118 123 179 192 190 165 116 219 208 194 174 137 121 117 114 103 77 51 65 67 85 73 56 55 44 38 54 85 82 54 27 22 15 19 9 359 351 349 344 344 349 349 347 347 345 335 328 325 322 331 333 334 336 338 347 359 350 341 337 328 319 311 307 307 306 304 302 306 305 302 300 299 298 301 305 297 236 230 247 251 276 255 235
179 193 141 163 180 216 215 187 182 164 63 37 149 157 147 198 137 117 103 98 80 61 43 94 122 91 67 59 45 59 60 59 35 27 39 50 20 11 357 352 341 337 337 344 342 345 343 331 323 317 319 325 333 336 335 334 334 349 353 346 338 336 327 320 313 306 305 316 313 312 312 308 307 304 298 293 293 294 296 308 277 237 250 253 255 254